Regional Weather Roundup
Issued by NWS Grand Forks, ND

Home | Current Version | Previous Version | Graphics & Text | Print | Product List | Glossary On
Versions: 1 2 3 4 5 6 7 8 9 10 11 12 13 14 15 16 17 18 19 20 21 22 23 24 25 26 27 28 29 30 31 32 33 34 35 36 37 38 39 40 41 42 43 44 45 46 47 48 49 50
000
ASUS43 KFGF 260810
RWRFGF
PRAIRIE TO PINES  WEATHER ROUNDUP
NATIONAL WEATHER SERVICE EASTERN NORTH DAKOTA/GRAND FORKS ND
300 AM CDT SUN MAR 26 2017

 **SATELLITE DATA USED TO AUGMENT SKY COVER AT AUTOMATED STATIONS**
 *****  WEATHER ACROSS EASTERN NORTH DAKOTA  *****

CITY           SKY/WX    TMP DP  RH WIND       PRES   REMARKS
GRAND FORKS    CLOUDY    34  33  96 S10       29.98F
GRAND FRKS AFB CLOUDY    35  34  95 S12       29.97F
DEVILS LAKE    CLOUDY    34  32  92 S6        29.94S
FARGO          CLOUDY    35  33  92 SE3       30.00R
WAHPETON ARPT    N/A     34  32  93 E3        29.99F
$$

 ***** WEATHER ACROSS CENTRAL AND WESTERN NORTH DAKOTA  *****

CITY           SKY/WX    TMP DP  RH WIND       PRES   REMARKS
BISMARCK       CLOUDY    41  35  79 S7        29.93S
MINOT          CLOUDY    41  35  79 SW3       29.90R
JAMESTOWN      FOG       33  33 100 S8        29.95S VSB 1/2
MINOT AFB      CLOUDY    36  34  90 CALM      29.89S
GARRISON         N/A     39  32  76 CALM      29.90S
WILLISTON      FAIR      44  34  67 NE6       29.90S
DICKINSON      CLOUDY    46  30  53 NE7       29.89R
HETTINGER      CLOUDY    41  36  82 N3        29.91R
$$

 *****  OTHER AIRPORT OBSERVATIONS IN OUR AREA  *****

CITY           SKY/WX    TMP DP  RH WIND       PRES   REMARKS
WALHALLA       NOT AVBL
GRAFTON AIRPOR FAIR      34  34 100 S6        30.00R
VALLEY CITY AR FOG       32  32 100 S8        29.98F VSB 1/4 WCI  25
CANDO          NOT AVBL
CAVALIER APRT    N/A     34  32  93 S9        29.95F
GWINNER        CLOUDY    34  34 100 MISG      29.97F FOG
SHEYENNE NWR     N/A     34  33  97 CALM      29.95S
ROLLA          CLOUDY    34  34 100 SW5       29.91F
 ***** THE ABOVE OBSERVATIONS ARE NON NWS ARE NOT QUALITY
       CONTROLLED AND MAY MIS-REPORT RAIN FOR SNOW...
$$

  *****  WEATHER ACROSS NORTHERN MINNESOTA  *****

CITY           SKY/WX    TMP DP  RH WIND       PRES   REMARKS
FLAG ISLAND    FAIR      30  28  93 S15       30.00F WCI  19
WARROAD        FAIR      32  28  86 S7        30.01S
ROSEAU         FAIR      34  28  80 S7        30.00S
HALLOCK        MOCLDY    34  32  93 S9        29.98S
THF RVR FALLS    N/A     32  31  96 E5        30.01F FOG
BAUDETTE       FAIR      29  26  89 SE5       30.02S WCI  24
WASKISH        CLOUDY    32  28  86 SE5       30.02F
CROOKSTON      FAIR      34  32  93 SE3       30.01F FOG
GREENBUSH NDAW   N/A     34  30  86 S2          N/A
$$
  *****  WEATHER ACROSS CENTRAL AND WEST MINNESOTA  *****

CITY           SKY/WX    TMP DP  RH WIND       PRES   REMARKS
FOSSTON        FAIR      28  27  93 CALM      30.01S
BEMIDJI        CLOUDY    31  28  91 SE3       30.01S
PARK RAPIDS    CLOUDY    33  27  78 SE5       29.99F
ELBOW LAKE     CLOUDY    36  36  97 CALM      29.99F
WADENA         CLOUDY    34  28  80 E3        30.00S
DETROIT LAKES  CLOUDY    34  32  93 SE5       30.00S
MOORHEAD       CLOUDY    34  30  86 CALM      30.01S
FERGUS FALLS   CLOUDY    36  30  80 CALM      30.03S
MORRIS MN      MOCLDY    36  36 100 CALM      29.98S
STAPLES        CLOUDY    34  28  80 E3        30.00F
$$
  *****  WEATHER ELSEWHERE ACROSS MINNESOTA  *****

CITY           SKY/WX    TMP DP  RH WIND       PRES   REMARKS
DULUTH         FOG       31  31 100 E9        30.02S VSB 1   WCI  23
INTRNTL FALLS  CLOUDY    31  27  85 VRB6      30.04F
ELY            CLOUDY    30  28  93 CALM      30.05F
CLOQUET        CLOUDY    32  30  93 E6        30.02F FOG
WHEATON        CLOUDY    36  34  93 CALM      30.01S
BRAINERD       CLOUDY    33  29  85 NE5       30.01F
HIBBING        CLOUDY    30  29  96 E3        30.03F
ALEXANDRIA     CLOUDY    37  31  78 E6        29.98F
SAINT CLOUD    CLOUDY    35  30  82 NE6       29.98F
MINNEAPOLIS    DRIZZLE   37  34  89 E7        29.98F
$$

  *****  WEATHER ACROSS SOUTH DAKOTA  *****

CITY           SKY/WX    TMP DP  RH WIND       PRES   REMARKS
SIOUX FALLS    CLOUDY    39  37  92 E7        29.93F
BROOKINGS      CLOUDY    36  35  96 E6        29.93F FOG
WATERTOWN      CLOUDY    35  35 100 SE5       29.94F FOG
HURON          CLOUDY    39  38  96 SE6       29.94F
SISSETON         N/A     35  35 100 CALM      29.97F
ABERDEEN       CLOUDY    35  33  92 E5        29.97S FOG
MITCHELL       CLOUDY    39  38  96 SE8       29.94F
PIERRE         CLOUDY    40  36  86 SE13      29.89F
MOBRIDGE       CLOUDY    39  34  82 S12       29.91S
RAPID CITY     CLOUDY    45  31  58 N8        29.84R
$$

  *****  SOME WEATHER IN NEARBY STATES *****

CITY           SKY/WX    TMP DP  RH WIND       PRES   REMARKS
GLASGOW MT     MOCLDY    41  29  62 E7        29.87F
GREAT FALLS MT FAIR      31  21  66 W10       29.93S WCI  22
CHEYENNE WY    CLOUDY    43  30  60 NW7       29.84F
SCOTTSBLUFF NE FAIR      45  31  58 E12       29.81S
OMAHA NE       LGT RAIN  41  37  86 NW7       29.90S
DES MOINES IA  RAIN      42  41  96 N6        29.85S VSB 1
DAVENPORT IA   FOG       46  45  96 E9        29.82F VSB 1/2
CHICAGO IL     CLOUDY    47  45  93 NE6       29.89F FOG
EAU CLAIRE WI  CLOUDY    35  34  96 E6        29.98F
LA CROSSE WI   CLOUDY    38  36  92 NE7       29.95F
$$

  *****  SOME NATIONAL WEATHER *****

CITY           SKY/WX    TMP DP  RH WIND       PRES   REMARKS
LA GUARDIA NY  LGT RAIN  41  35  79 NE13      30.41F
RALEIGH NC     FAIR      58  51  78 S5        30.20S
ATLANTA GA     LGT RAIN  60  59  96 SE7       30.10F
NEW ORLEANS LA MOCLDY    68  65  90 S6        29.97F
OKLAHOMA CITY  FAIR      45  41  86 E9        29.89F
ALBUQUERQUE NM MOCLDY    49  30  48 CALM      29.96F
SALT LAKE CITY MOCLDY    38  36  92 E3        30.02S
LOS ANGELES CA FAIR      57  54  89 SW8       30.03F
BOISE ID       FAIR      41  30  65 SE8       29.99S
SEATTLE WA     CLOUDY    44  39  82 S5        30.00F
$$

*** WEATHER ACROSS MANITOBA...SASKATCHEWAN AND ONTARIO ***
                ***ONTARIO***

CITY           SKY/WX    TMP DP  RH WIND       PRES   REMARKS
GERALDTON      PTCLDY    23   5  46 E7        30.17F WCI  15
THUNDER BAY    CLOUDY    32  27  80 NE6       30.13F
SIOUX LOOKOUT  CLOUDY    28  21  74 S5        30.04S WCI  23
TORONTO        CLOUDY    34  32  93 E9G20     30.28F
BIG TROUT LK   CLOUDY    28  10  47 S15G21    29.99F WCI  17
PICKLE LAKE    NOT AVBL
DRYDEN         CLOUDY    30  25  80 S13       30.01F WCI  20
KENORA         NOT AVBL
$$
                *** MANITOBA***

CITY           SKY/WX    TMP DP  RH WIND       PRES   REMARKS
BRANDON        CLOUDY    32  30  93 W7        29.91S
DAUPHIN        CLEAR     34  32  93 SW8       29.89S
ISLAND LAKE    CLOUDY    36  28  75 S9        29.80F
PILOT MOUND      N/A     34  32  93 S7          N/A
THE PAS        CLEAR     19  16  86 NW10      29.89R WCI   8
THOMPSON       FRZ RAIN  28  27  93 W14G21    29.71R WCI  17
WINNIPEG       CLOUDY    34  32  93 S14       29.94S WCI  24
LYNN LAKE      CLEAR     14  12  92 NW8       29.82S WCI   3
CHURCHILL      LGT SNOW  14  12  92 E14       29.98F DRFTSNOWWCI  -1
GILLAM         LGT SNOW  27  25  93 SE5       29.76F VSB 1   WCI  21
$$
                ***SASKATCHEWAN***

CITY           SKY/WX    TMP DP  RH WIND       PRES   REMARKS
ESTEVAN        PTCLDY    34  34 100 S8        29.89S
KINDERSLEY     PTCLDY    32  28  86 SE9       29.77R WCI  24
LLOYDMINSTER   CLEAR     25  25 100 E6        29.81S FOG     WCI  18
PRINCE ALBERT  CLOUDY    32  28  86 CALM      29.88S
REGINA         CLOUDY    36  34  93 SE7       29.87R
YORKTON        CLOUDY    32  32 100 SW3       29.88R
N. BATTLEFORD  MOCLDY    28 N/A N/A NE5       29.87R WCI  23
LA RONGE       MOCLDY    18  16  93 CALM      29.90S
SASKATOON      PTCLDY    30  28  93 E6        29.87S WCI  24
SWIFT CURRENT  CLEAR     34  25  69 SW12      29.82S
$$
NOTE: THESE ARE AUTOMATED STATIONS WITH LIMITED QUALITY CONTROL
      "FAIR" INDICATES FEW OR NO CLOUDS BELOW 12,000 FEET WITH NO
      SIGNIFICANT WEATHER AND/OR OBSTRUCTIONS TO VISIBILITY.
      SKY/WX - SKY CONDITION AND SIGNIFICANT WEATHER.
      TMP - AIR TEMPERATURE.    DP   - DEWPOINT TEMPERATURE.
      RH  - RELATIVE HUMIDITY.  PRES - PRESSURE.
      HX  - HEAT INDEX.         WCI  - WIND CHILL INDEX.
$




USA.gov is the U.S. government's official web portal to all federal, state and local government web resources and services.